GALAXY 23 (G-23)

Last updated on Thu Nov 21 2024 00:02:40 GMT+0000 (Coordinated Universal Time)

1 27854U 03034A 24325.05683502 .00000014 00000+0 00000+0 0 9994 2 27854 1.7085 86.9238 0002604 152.3527 79.8988 1.00272618 77989
UTC large
Height (km)
Speed (km/s)
/
Latitude / Longitude
Inclination (degrees)
Orbital Period (minutes)
Azimuth
Elevation
Range (km)
Doppler Factor

Next 0 passes for location: London (51.5072 / 0.1276)

Sorry there are no passes over London.